| time (UTC) | temp F | wind direction | speed MPH | gust MPH | rain 1hr in | rain 24hr in | rain mn in | humidity % | barometer mb |
| 20260507064116 | 59 | 292 | 2.0 | 3.0 | 0.00 | 0.00 | 0.00 | 76 | 1021.2 |
| 20260507063613 | 59 | 303 | 0.0 | 0.0 | 0.00 | 0.00 | 0.00 | 76 | 1021.3 |
| 20260507063110 | 59 | 310 | 5.0 | 6.0 | 0.00 | 0.00 | 0.00 | 76 | 1021.3 |
| 20260507062606 | 59 | 312 | 2.0 | 3.0 | 0.00 | 0.00 | 0.00 | 76 | 1021.4 |
| 20260507062104 | 59 | 327 | 2.0 | 3.0 | 0.00 | 0.00 | 0.00 | 76 | 1021.3 |
| 20260507061601 | 59 | 302 | 1.0 | 2.0 | 0.00 | 0.00 | 0.00 | 76 | 1021.1 |
| 20260507061100 | 59 | 308 | 0.0 | 0.0 | 0.00 | 0.00 | 0.00 | 76 | 1021.2 |
| 20260507060557 | 59 | 302 | 4.0 | 6.0 | 0.00 | 0.00 | 0.00 | 76 | 1021.2 |
| 20260507060053 | 59 | 329 | 2.0 | 2.0 | 0.00 | 0.00 | 0.00 | 76 | 1021.2 |
| 20260507055548 | 59 | 309 | 0.0 | 0.0 | 0.00 | 0.00 | 0.00 | 76 | 1021.2 |
| 20260507055045 | 59 | 302 | 0.0 | 0.0 | 0.00 | 0.00 | 0.00 | 76 | 1021.1 |
| 20260507054541 | 59 | 317 | 0.0 | 0.0 | 0.00 | 0.00 | 0.00 | 76 | 1021.4 |
| 20260507054038 | 59 | 320 | 0.0 | 0.0 | 0.00 | 0.00 | 0.00 | 76 | 1021.3 |
| 20260507053536 | 59 | 311 | 0.0 | 0.0 | 0.00 | 0.00 | 0.00 | 75 | 1021.1 |
| 20260507053035 | 59 | 313 | 0.0 | 0.0 | 0.00 | 0.00 | 0.00 | 75 | 1021.2 |
| 20260507052532 | 60 | 311 | 0.0 | 0.0 | 0.00 | 0.00 | 0.00 | 75 | 1021.2 |
| 20260507052028 | 60 | 321 | 0.0 | 0.0 | 0.00 | 0.00 | 0.00 | 75 | 1021.3 |
| 20260507051527 | 60 | 319 | 0.0 | 0.0 | 0.00 | 0.00 | 0.00 | 74 | 1021.3 |
| 20260507051023 | 60 | 329 | 0.0 | 0.0 | 0.00 | 0.00 | 0.00 | 74 | 1021.2 |
| 20260507050519 | 60 | 298 | 0.0 | 0.0 | 0.00 | 0.00 | 0.00 | 74 | 1021.2 |
| 20260507050016 | 60 | 308 | 0.0 | 0.0 | 0.00 | 0.00 | 0.00 | 73 | 1021.2 |
| 20260507045513 | 61 | 303 | 0.0 | 0.0 | 0.00 | 0.00 | 0.00 | 73 | 1021.3 |
| 20260507045010 | 61 | 305 | 2.0 | 3.0 | 0.00 | 0.00 | 0.00 | 73 | 1021.3 |
| 20260507044506 | 61 | 283 | 5.0 | 6.0 | 0.00 | 0.00 | 0.00 | 72 | 1021.3 |
| 20260507044003 | 61 | 296 | 0.0 | 0.0 | 0.00 | 0.00 | 0.00 | 72 | 1021.1 |
| 20260507043459 | 61 | 293 | 4.0 | 5.0 | 0.00 | 0.00 | 0.00 | 72 | 1020.9 |
| 20260507042955 | 62 | 302 | 4.0 | 5.0 | 0.00 | 0.00 | 0.00 | 71 | 1020.9 |
| 20260507042453 | 62 | 270 | 3.0 | 3.0 | 0.00 | 0.00 | 0.00 | 71 | 1020.9 |
| 20260507041948 | 62 | 275 | 4.0 | 6.0 | 0.00 | 0.00 | 0.00 | 71 | 1020.8 |
| 20260507041445 | 62 | 270 | 3.0 | 6.0 | 0.00 | 0.00 | 0.00 | 70 | 1020.8 |
| 20260507040942 | 62 | 288 | 6.0 | 8.0 | 0.00 | 0.00 | 0.00 | 70 | 1020.8 |
| 20260507040438 | 62 | 293 | 4.0 | 6.0 | 0.00 | 0.00 | 0.00 | 70 | 1020.4 |
| 20260507035934 | 63 | 280 | 6.0 | 7.0 | 0.00 | 0.00 | 0.00 | 69 | 1020.8 |
| 20260507035431 | 63 | 275 | 5.0 | 6.0 | 0.00 | 0.00 | 0.00 | 69 | 1020.5 |
| 20260507034927 | 63 | 304 | 5.0 | 6.0 | 0.00 | 0.00 | 0.00 | 68 | 1020.4 |
| 20260507034424 | 63 | 291 | 5.0 | 8.0 | 0.00 | 0.00 | 0.00 | 68 | 1020.3 |
| 20260507033922 | 64 | 307 | 7.0 | 8.0 | 0.00 | 0.00 | 0.00 | 68 | 1020.6 |
| 20260507033420 | 64 | 297 | 6.0 | 7.0 | 0.00 | 0.00 | 0.00 | 67 | 1020.1 |
| 20260507032917 | 64 | 286 | 4.0 | 6.0 | 0.00 | 0.00 | 0.00 | 67 | 1020.2 |
| 20260507032414 | 64 | 302 | 4.0 | 5.0 | 0.00 | 0.00 | 0.00 | 66 | 1020.2 |
| 20260507031909 | 64 | 300 | 6.0 | 8.0 | 0.00 | 0.00 | 0.00 | 66 | 1020.3 |
| 20260507031406 | 64 | 274 | 9.0 | 11.0 | 0.00 | 0.00 | 0.00 | 65 | 1020.1 |
| 20260507030903 | 65 | 294 | 6.0 | 8.0 | 0.00 | 0.00 | 0.00 | 65 | 1020.3 |
| 20260507030400 | 65 | 311 | 4.0 | 6.0 | 0.00 | 0.00 | 0.00 | 65 | 1020.5 |
| 20260507025857 | 65 | 290 | 5.0 | 7.0 | 0.00 | 0.00 | 0.00 | 64 | 1020.0 |
| 20260507025355 | 65 | 287 | 4.0 | 5.0 | 0.00 | 0.00 | 0.00 | 63 | 1020.0 |
| 20260507024852 | 66 | 324 | 4.0 | 6.0 | 0.00 | 0.00 | 0.00 | 63 | 1019.8 |
| 20260507024350 | 66 | 292 | 5.0 | 7.0 | 0.00 | 0.00 | 0.00 | 62 | 1019.9 |
| 20260507023845 | 66 | 285 | 7.0 | 11.0 | 0.00 | 0.00 | 0.00 | 62 | 1019.8 |
| 20260507023342 | 67 | 288 | 5.0 | 7.0 | 0.00 | 0.00 | 0.00 | 62 | 1020.0 |
| 20260507022840 | 67 | 297 | 9.0 | 11.0 | 0.00 | 0.00 | 0.00 | 61 | 1019.6 |
| 20260507022336 | 67 | 289 | 5.0 | 7.0 | 0.00 | 0.00 | 0.00 | 61 | 1019.6 |
| 20260507021832 | 68 | 318 | 11.0 | 14.0 | 0.00 | 0.00 | 0.00 | 60 | 1019.9 |
| 20260507021327 | 68 | 283 | 8.0 | 11.0 | 0.00 | 0.00 | 0.00 | 60 | 1019.6 |
| 20260507020825 | 69 | 290 | 10.0 | 16.0 | 0.00 | 0.00 | 0.00 | 59 | 1019.6 |
| 20260507020322 | 69 | 316 | 6.0 | 10.0 | 0.00 | 0.00 | 0.00 | 59 | 1019.3 |
| 20260507015819 | 69 | 276 | 9.0 | 10.0 | 0.00 | 0.00 | 0.00 | 58 | 1019.4 |
| 20260507015317 | 69 | 275 | 5.0 | 7.0 | 0.00 | 0.00 | 0.00 | 58 | 1019.5 |
| 20260507014814 | 70 | 293 | 10.0 | 13.0 | 0.00 | 0.00 | 0.00 | 56 | 1019.4 |
| 20260507014310 | 70 | 282 | 4.0 | 6.0 | 0.00 | 0.00 | 0.00 | 56 | 1019.4 |
| 20260507013806 | 71 | 300 | 4.0 | 9.0 | 0.00 | 0.00 | 0.00 | 55 | 1019.3 |
| 20260507013304 | 71 | 306 | 6.0 | 9.0 | 0.00 | 0.00 | 0.00 | 55 | 1019.3 |
| 20260507012801 | 71 | 275 | 8.0 | 9.0 | 0.00 | 0.00 | 0.00 | 54 | 1019.2 |
| 20260507012257 | 71 | 294 | 6.0 | 9.0 | 0.00 | 0.00 | 0.00 | 53 | 1019.5 |
| 20260507011754 | 71 | 280 | 9.0 | 13.0 | 0.00 | 0.00 | 0.00 | 54 | 1018.9 |
| 20260507011251 | 72 | 254 | 6.0 | 9.0 | 0.00 | 0.00 | 0.00 | 53 | 1019.4 |
| 20260507010750 | 72 | 330 | 4.0 | 6.0 | 0.00 | 0.00 | 0.00 | 53 | 1019.2 |
| 20260507010247 | 72 | 323 | 5.0 | 7.0 | 0.00 | 0.00 | 0.00 | 52 | 1019.2 |
| 20260507005744 | 72 | 247 | 5.0 | 8.0 | 0.00 | 0.00 | 0.00 | 52 | 1019.0 |
| 20260507005241 | 72 | 297 | 8.0 | 10.0 | 0.00 | 0.00 | 0.00 | 52 | 1019.0 |
| 20260507004737 | 73 | 297 | 8.0 | 10.0 | 0.00 | 0.00 | 0.00 | 52 | 1018.9 |
| 20260507004235 | 73 | 277 | 8.0 | 11.0 | 0.00 | 0.00 | 0.00 | 51 | 1018.9 |
| 20260507003731 | 73 | 309 | 6.0 | 9.0 | 0.00 | 0.00 | 0.00 | 51 | 1018.9 |
| 20260507003226 | 73 | 286 | 6.0 | 9.0 | 0.00 | 0.00 | 0.00 | 50 | 1019.0 |
| 20260507002722 | 73 | 280 | 5.0 | 6.0 | 0.00 | 0.00 | 0.00 | 51 | 1019.2 |
| 20260507002219 | 73 | 325 | 6.0 | 10.0 | 0.00 | 0.00 | 0.00 | 50 | 1018.9 |
| 20260507001716 | 73 | 299 | 5.0 | 7.0 | 0.00 | 0.00 | 0.00 | 50 | 1018.6 |
| 20260507001213 | 74 | 272 | 8.0 | 10.0 | 0.00 | 0.00 | 0.00 | 50 | 1018.6 |
| 20260507000709 | 74 | 314 | 5.0 | 9.0 | 0.00 | 0.00 | 0.00 | 50 | 1018.5 |
| 20260507000205 | 74 | 279 | 11.0 | 13.0 | 0.00 | 0.00 | 0.00 | 50 | 1019.0 |
| 20260506235702 | 75 | 282 | 9.0 | 13.0 | 0.00 | 0.00 | 0.00 | 48 | 1018.5 |
| 20260506235157 | 75 | 308 | 4.0 | 6.0 | 0.00 | 0.00 | 0.00 | 47 | 1018.5 |
| 20260506234654 | 73 | 263 | 9.0 | 10.0 | 0.00 | 0.00 | 0.00 | 49 | 1018.9 |
| 20260506234151 | 74 | 300 | 8.0 | 9.0 | 0.00 | 0.00 | 0.00 | 50 | 1018.7 |
| 20260506233649 | 75 | 332 | 4.0 | 5.0 | 0.00 | 0.00 | 0.00 | 47 | 1018.4 |
| 20260506233145 | 74 | 15 | 7.0 | 9.0 | 0.00 | 0.00 | 0.00 | 49 | 1018.5 |
| 20260506232642 | 74 | 322 | 7.0 | 8.0 | 0.00 | 0.00 | 0.00 | 48 | 1018.6 |
| 20260506232137 | 75 | 303 | 11.0 | 13.0 | 0.00 | 0.00 | 0.00 | 46 | 1018.8 |
| 20260506231634 | 75 | 286 | 0.0 | 0.0 | 0.00 | 0.00 | 0.00 | 47 | 1018.6 |
| 20260506231133 | 75 | 294 | 6.0 | 9.0 | 0.00 | 0.00 | 0.00 | 47 | 1018.8 |
| 20260506230630 | 75 | 301 | 9.0 | 11.0 | 0.00 | 0.00 | 0.00 | 46 | 1018.8 |
| 20260506230126 | 75 | 281 | 5.0 | 8.0 | 0.00 | 0.00 | 0.00 | 45 | 1018.8 |
| 20260506225623 | 75 | 295 | 9.0 | 10.0 | 0.00 | 0.00 | 0.00 | 47 | 1019.0 |
| 20260506225119 | 75 | 299 | 5.0 | 7.0 | 0.00 | 0.00 | 0.00 | 46 | 1019.0 |
| 20260506224616 | 74 | 234 | 2.0 | 2.0 | 0.00 | 0.00 | 0.00 | 46 | 1018.9 |
| 20260506224113 | 75 | 309 | 6.0 | 8.0 | 0.00 | 0.00 | 0.00 | 46 | 1018.9 |
| 20260506223609 | 74 | 286 | 2.0 | 3.0 | 0.00 | 0.00 | 0.00 | 46 | 1019.0 |
| 20260506223105 | 74 | 340 | 4.0 | 5.0 | 0.00 | 0.00 | 0.00 | 46 | 1019.0 |
| 20260506222602 | 74 | 223 | 8.0 | 9.0 | 0.00 | 0.00 | 0.00 | 45 | 1018.9 |
| 20260506222058 | 73 | 279 | 2.0 | 3.0 | 0.00 | 0.00 | 0.00 | 46 | 1019.0 |
| 20260506221556 | 73 | 285 | 7.0 | 11.0 | 0.00 | 0.00 | 0.00 | 45 | 1019.3 |
| 20260506221054 | 73 | 284 | 5.0 | 8.0 | 0.00 | 0.00 | 0.00 | 45 | 1019.4 |
| 20260506220550 | 73 | 240 | 3.0 | 6.0 | 0.00 | 0.00 | 0.00 | 46 | 1019.3 |
| 20260506220045 | 73 | 13 | 7.0 | 8.0 | 0.00 | 0.00 | 0.00 | 46 | 1019.4 |
| 20260506215542 | 73 | 298 | 3.0 | 3.0 | 0.00 | 0.00 | 0.00 | 44 | 1019.4 |
| 20260506215038 | 73 | 292 | 5.0 | 8.0 | 0.00 | 0.00 | 0.00 | 46 | 1019.4 |
| 20260506214535 | 73 | 280 | 0.0 | 0.0 | 0.00 | 0.00 | 0.00 | 46 | 1019.8 |
| 20260506214033 | 73 | 230 | 3.0 | 5.0 | 0.00 | 0.00 | 0.00 | 46 | 1019.7 |
| 20260506213531 | 72 | 347 | 3.0 | 5.0 | 0.00 | 0.00 | 0.00 | 46 | 1019.7 |
| 20260506213027 | 72 | 286 | 6.0 | 10.0 | 0.00 | 0.00 | 0.00 | 47 | 1019.8 |
| 20260506212524 | 71 | 10 | 6.0 | 9.0 | 0.00 | 0.00 | 0.00 | 48 | 1019.9 |
| 20260506212019 | 71 | 307 | 8.0 | 9.0 | 0.00 | 0.00 | 0.00 | 47 | 1020.1 |
| 20260506211515 | 72 | 278 | 7.0 | 10.0 | 0.00 | 0.00 | 0.00 | 47 | 1020.1 |
| 20260506211013 | 71 | 297 | 2.0 | 2.0 | 0.00 | 0.00 | 0.00 | 47 | 1020.1 |
| 20260506210509 | 71 | 300 | 9.0 | 10.0 | 0.00 | 0.00 | 0.00 | 47 | 1019.9 |
| 20260506210006 | 73 | 293 | 0.0 | 2.0 | 0.00 | 0.00 | 0.00 | 47 | 1020.1 |
| 20260506205501 | 71 | 283 | 2.0 | 2.0 | 0.00 | 0.00 | 0.00 | 47 | 1020.2 |
| 20260506204952 | 71 | 293 | 3.0 | 3.0 | 0.00 | 0.00 | 0.00 | 47 | 1020.3 |
| 20260506204450 | 72 | 272 | 0.0 | 0.0 | 0.00 | 0.00 | 0.00 | 45 | 1020.2 |
| 20260506203947 | 72 | 277 | 3.0 | 5.0 | 0.00 | 0.00 | 0.00 | 47 | 1020.1 |
| 20260506203444 | 71 | 229 | 4.0 | 8.0 | 0.00 | 0.00 | 0.00 | 47 | 1020.2 |
| 20260506202941 | 71 | 257 | 5.0 | 7.0 | 0.00 | 0.00 | 0.00 | 50 | 1020.4 |
| 20260506202439 | 70 | 269 | 4.0 | 6.0 | 0.00 | 0.00 | 0.00 | 49 | 1020.6 |
| 20260506201935 | 71 | 264 | 5.0 | 6.0 | 0.00 | 0.00 | 0.00 | 49 | 1020.3 |
| 20260506201433 | 69 | 272 | 4.0 | 5.0 | 0.00 | 0.00 | 0.00 | 49 | 1020.5 |
| 20260506200929 | 69 | 274 | 4.0 | 6.0 | 0.00 | 0.00 | 0.00 | 49 | 1020.5 |
| 20260506200425 | 70 | 268 | 2.0 | 3.0 | 0.00 | 0.00 | 0.00 | 49 | 1020.7 |
| 20260506195922 | 69 | 237 | 7.0 | 8.0 | 0.00 | 0.00 | 0.00 | 50 | 1020.7 |
| 20260506195419 | 70 | 294 | 0.0 | 0.0 | 0.00 | 0.00 | 0.00 | 50 | 1020.9 |
| 20260506194916 | 70 | 264 | 4.0 | 5.0 | 0.00 | 0.00 | 0.00 | 48 | 1021.2 |
| 20260506194413 | 71 | 271 | 4.0 | 5.0 | 0.00 | 0.00 | 0.00 | 48 | 1020.8 |
| 20260506193910 | 70 | 202 | 0.0 | 0.0 | 0.00 | 0.00 | 0.00 | 49 | 1020.8 |
| 20260506193407 | 69 | 261 | 4.0 | 5.0 | 0.00 | 0.00 | 0.00 | 51 | 1021.2 |
| 20260506192903 | 69 | 257 | 0.0 | 0.0 | 0.00 | 0.00 | 0.00 | 50 | 1021.2 |
| 20260506192400 | 69 | 259 | 5.0 | 6.0 | 0.00 | 0.00 | 0.00 | 53 | 1020.9 |
| 20260506191857 | 68 | 229 | 0.0 | 2.0 | 0.00 | 0.00 | 0.00 | 52 | 1021.2 |
| 20260506191353 | 67 | 239 | 5.0 | 6.0 | 0.00 | 0.00 | 0.00 | 53 | 1021.1 |
| 20260506190850 | 68 | 241 | 7.0 | 8.0 | 0.00 | 0.00 | 0.00 | 53 | 1021.2 |
| 20260506190346 | 68 | 239 | 4.0 | 5.0 | 0.00 | 0.00 | 0.00 | 53 | 1021.5 |
| 20260506185843 | 68 | 304 | 0.0 | 0.0 | 0.00 | 0.00 | 0.00 | 51 | 1021.3 |
| 20260506185340 | 68 | 197 | 2.0 | 2.0 | 0.00 | 0.00 | 0.00 | 53 | 1021.6 |
| 20260506184837 | 67 | 297 | 3.0 | 6.0 | 0.00 | 0.00 | 0.00 | 53 | 1021.7 |
| 20260506184335 | 66 | 281 | 0.0 | 0.0 | 0.00 | 0.00 | 0.00 | 55 | 1021.7 |
| 20260506183832 | 67 | 233 | 5.0 | 7.0 | 0.00 | 0.00 | 0.00 | 54 | 1021.7 |
| 20260506183327 | 68 | 317 | 0.0 | 0.0 | 0.00 | 0.00 | 0.00 | 55 | 1021.5 |
| 20260506182825 | 67 | 260 | 0.0 | 0.0 | 0.00 | 0.00 | 0.00 | 56 | 1021.7 |
| 20260506182321 | 66 | 278 | 1.0 | 2.0 | 0.00 | 0.00 | 0.00 | 55 | 1021.9 |
| 20260506181819 | 66 | 328 | 3.0 | 5.0 | 0.00 | 0.00 | 0.00 | 57 | 1021.8 |
| 20260506181317 | 66 | 296 | 1.0 | 2.0 | 0.00 | 0.00 | 0.00 | 59 | 1021.8 |
| 20260506180814 | 65 | 165 | 2.0 | 3.0 | 0.00 | 0.00 | 0.00 | 57 | 1021.6 |
| 20260506180310 | 64 | 333 | 1.0 | 2.0 | 0.00 | 0.00 | 0.00 | 60 | 1021.7 |
| 20260506175806 | 65 | 303 | 3.0 | 6.0 | 0.00 | 0.00 | 0.00 | 59 | 1021.7 |
| 20260506175306 | 66 | 299 | 0.0 | 0.0 | 0.00 | 0.00 | 0.00 | 57 | 1021.7 |
| 20260506174801 | 66 | 278 | 0.0 | 0.0 | 0.00 | 0.00 | 0.00 | 59 | 1021.7 |
| 20260506174258 | 63 | 219 | 1.0 | 2.0 | 0.00 | 0.00 | 0.00 | 61 | 1021.8 |
| 20260506173755 | 62 | 283 | 2.0 | 3.0 | 0.00 | 0.00 | 0.00 | 62 | 1021.9 |
| 20260506173252 | 62 | 348 | 3.0 | 3.0 | 0.00 | 0.00 | 0.00 | 62 | 1021.7 |
| 20260506172749 | 62 | 308 | 2.0 | 2.0 | 0.00 | 0.00 | 0.00 | 63 | 1021.7 |
| 20260506172245 | 63 | 306 | 0.0 | 0.0 | 0.00 | 0.00 | 0.00 | 62 | 1022.1 |
| 20260506171743 | 64 | 264 | 0.0 | 0.0 | 0.00 | 0.00 | 0.00 | 61 | 1021.9 |
| 20260506171240 | 63 | 163 | 0.0 | 1.0 | 0.00 | 0.00 | 0.00 | 61 | 1022.0 |
| 20260506170738 | 62 | 212 | 1.0 | 3.0 | 0.00 | 0.00 | 0.00 | 62 | 1022.0 |
| 20260506170234 | 61 | 234 | 0.0 | 1.0 | 0.00 | 0.00 | 0.00 | 64 | 1021.9 |
| 20260506165733 | 60 | 255 | 3.0 | 3.0 | 0.00 | 0.00 | 0.00 | 65 | 1022.0 |
| 20260506165229 | 60 | 241 | 3.0 | 3.0 | 0.00 | 0.00 | 0.00 | 65 | 1021.8 |
| 20260506164726 | 61 | 225 | 4.0 | 5.0 | 0.00 | 0.00 | 0.00 | 65 | 1022.0 |
| 20260506164223 | 60 | 298 | 0.0 | 0.0 | 0.00 | 0.00 | 0.00 | 65 | 1022.0 |
| 20260506163720 | 59 | 301 | 0.0 | 0.0 | 0.00 | 0.00 | 0.00 | 66 | 1021.9 |
| 20260506163215 | 59 | 76 | 0.0 | 1.0 | 0.00 | 0.00 | 0.00 | 67 | 1022.0 |
| 20260506162711 | 58 | 343 | 1.0 | 2.0 | 0.00 | 0.00 | 0.00 | 69 | 1021.9 |
| 20260506162209 | 59 | 332 | 0.0 | 0.0 | 0.00 | 0.00 | 0.00 | 68 | 1022.0 |
| 20260506161706 | 58 | 220 | 0.0 | 0.0 | 0.00 | 0.00 | 0.00 | 70 | 1021.8 |
| 20260506161203 | 58 | 216 | 0.0 | 0.0 | 0.00 | 0.00 | 0.00 | 69 | 1021.7 |
| 20260506160701 | 58 | 211 | 0.0 | 0.0 | 0.00 | 0.00 | 0.00 | 69 | 1021.8 |
| 20260506160157 | 58 | 184 | 0.0 | 0.0 | 0.00 | 0.00 | 0.00 | 70 | 1022.0 |
| 20260506155655 | 57 | 152 | 0.0 | 0.0 | 0.00 | 0.00 | 0.00 | 71 | 1021.8 |
| 20260506155152 | 57 | 175 | 0.0 | 0.0 | 0.00 | 0.00 | 0.00 | 71 | 1021.8 |
| 20260506153254 | 55 | 40 | 1.0 | 2.0 | 0.00 | 0.00 | 0.00 | 77 | 1021.6 |
| 20260506152751 | 55 | 69 | 1.0 | 3.0 | 0.00 | 0.00 | 0.00 | 77 | 1021.7 |
| 20260506152248 | 55 | 78 | 0.0 | 1.0 | 0.00 | 0.00 | 0.00 | 77 | 1021.7 |
| 20260506151747 | 55 | 91 | 0.0 | 0.0 | 0.00 | 0.00 | 0.00 | 79 | 1021.8 |
| 20260506151243 | 54 | 133 | 0.0 | 0.0 | 0.00 | 0.00 | 0.00 | 79 | 1021.8 |
| 20260506150740 | 54 | 131 | 4.0 | 5.0 | 0.00 | 0.00 | 0.00 | 79 | 1021.8 |
| 20260506150237 | 54 | 161 | 0.0 | 0.0 | 0.00 | 0.00 | 0.00 | 81 | 1021.7 |
| 20260506145734 | 54 | 145 | 4.0 | 5.0 | 0.00 | 0.00 | 0.00 | 80 | 1021.9 |
| 20260506145230 | 53 | 169 | 3.0 | 3.0 | 0.00 | 0.00 | 0.00 | 81 | 1021.6 |
| 20260506144728 | 53 | 83 | 1.0 | 1.0 | 0.00 | 0.00 | 0.00 | 82 | 1021.8 |
| 20260506144225 | 53 | 74 | 0.0 | 0.0 | 0.00 | 0.00 | 0.00 | 83 | 1021.9 |
| 20260506143722 | 52 | 128 | 0.0 | 0.0 | 0.00 | 0.00 | 0.00 | 84 | 1021.6 |
| 20260506143220 | 52 | 78 | 0.0 | 0.0 | 0.00 | 0.00 | 0.00 | 84 | 1021.5 |
| 20260506142718 | 52 | 81 | 0.0 | 0.0 | 0.00 | 0.00 | 0.00 | 84 | 1021.7 |
| 20260506142216 | 51 | 78 | 0.0 | 0.0 | 0.00 | 0.00 | 0.00 | 84 | 1021.7 |
| 20260506141714 | 51 | 82 | 0.0 | 0.0 | 0.00 | 0.00 | 0.00 | 85 | 1021.7 |
| 20260506141212 | 51 | 75 | 1.0 | 1.0 | 0.00 | 0.00 | 0.00 | 85 | 1021.8 |
| 20260506140709 | 50 | 74 | 0.0 | 0.0 | 0.00 | 0.00 | 0.00 | 86 | 1021.8 |
| 20260506140206 | 51 | 93 | 1.0 | 2.0 | 0.00 | 0.00 | 0.00 | 86 | 1021.6 |
| 20260506135703 | 50 | 86 | 0.0 | 0.0 | 0.00 | 0.00 | 0.00 | 87 | 1021.6 |
| 20260506135159 | 50 | 105 | 1.0 | 1.0 | 0.00 | 0.00 | 0.00 | 87 | 1021.5 |
| 20260506134656 | 50 | 95 | 0.0 | 1.0 | 0.00 | 0.00 | 0.00 | 88 | 1021.6 |
| 20260506134152 | 49 | 95 | 0.0 | 0.0 | 0.00 | 0.00 | 0.00 | 88 | 1021.7 |
| 20260506133649 | 49 | 126 | 0.0 | 0.0 | 0.00 | 0.00 | 0.00 | 89 | 1021.3 |
| 20260506133146 | 49 | 132 | 0.0 | 0.0 | 0.00 | 0.00 | 0.00 | 89 | 1021.4 |
| 20260506132643 | 49 | 157 | 0.0 | 0.0 | 0.00 | 0.00 | 0.00 | 89 | 1021.3 |
| 20260506132140 | 48 | 157 | 0.0 | 0.0 | 0.00 | 0.00 | 0.00 | 90 | 1021.2 |
| 20260506131638 | 48 | 157 | 0.0 | 0.0 | 0.00 | 0.00 | 0.00 | 90 | 1020.9 |
| 20260506131134 | 48 | 158 | 0.0 | 0.0 | 0.00 | 0.00 | 0.00 | 90 | 1021.3 |
| 20260506130631 | 48 | 158 | 0.0 | 0.0 | 0.00 | 0.00 | 0.00 | 90 | 1020.9 |
| 20260506130128 | 48 | 158 | 0.0 | 0.0 | 0.00 | 0.00 | 0.00 | 90 | 1020.9 |
| 20260506125626 | 48 | 158 | 0.0 | 0.0 | 0.00 | 0.00 | 0.00 | 90 | 1020.8 |
| 20260506125123 | 48 | 158 | 0.0 | 0.0 | 0.00 | 0.00 | 0.00 | 89 | 1020.8 |
| 20260506124621 | 48 | 158 | 0.0 | 0.0 | 0.00 | 0.00 | 0.00 | 89 | 1020.8 |
| 20260506124119 | 48 | 158 | 0.0 | 0.0 | 0.00 | 0.00 | 0.00 | 89 | 1020.8 |
| 20260506123616 | 48 | 159 | 0.0 | 0.0 | 0.00 | 0.00 | 0.00 | 89 | 1020.8 |
| 20260506123115 | 48 | 159 | 0.0 | 0.0 | 0.00 | 0.00 | 0.00 | 89 | 1020.8 |
| 20260506122611 | 48 | 158 | 0.0 | 0.0 | 0.00 | 0.00 | 0.00 | 89 | 1020.7 |
| 20260506122109 | 48 | 158 | 0.0 | 0.0 | 0.00 | 0.00 | 0.00 | 89 | 1020.8 |
| 20260506121607 | 48 | 158 | 0.0 | 0.0 | 0.00 | 0.00 | 0.00 | 89 | 1020.8 |
| 20260506121103 | 48 | 158 | 0.0 | 0.0 | 0.00 | 0.00 | 0.00 | 89 | 1021.1 |
| 20260506120601 | 48 | 158 | 0.0 | 0.0 | 0.00 | 0.00 | 0.00 | 89 | 1020.7 |
| 20260506120058 | 49 | 158 | 0.0 | 0.0 | 0.00 | 0.00 | 0.00 | 89 | 1020.8 |
| 20260506115556 | 49 | 158 | 0.0 | 0.0 | 0.00 | 0.00 | 0.00 | 88 | 1020.5 |
| 20260506115054 | 49 | 158 | 0.0 | 0.0 | 0.00 | 0.00 | 0.00 | 88 | 1020.6 |
| 20260506114551 | 49 | 158 | 0.0 | 0.0 | 0.00 | 0.00 | 0.00 | 88 | 1020.7 |
| 20260506114049 | 49 | 158 | 0.0 | 0.0 | 0.00 | 0.00 | 0.00 | 88 | 1020.7 |
| 20260506113547 | 49 | 159 | 0.0 | 0.0 | 0.00 | 0.00 | 0.00 | 88 | 1020.9 |
| 20260506113044 | 49 | 159 | 0.0 | 0.0 | 0.00 | 0.00 | 0.00 | 88 | 1020.7 |
| 20260506112540 | 49 | 159 | 0.0 | 0.0 | 0.00 | 0.00 | 0.00 | 88 | 1020.6 |
| 20260506112038 | 49 | 159 | 0.0 | 0.0 | 0.00 | 0.00 | 0.00 | 88 | 1020.7 |
| 20260506111536 | 49 | 158 | 0.0 | 0.0 | 0.00 | 0.00 | 0.00 | 88 | 1020.6 |
| 20260506111033 | 49 | 158 | 0.0 | 0.0 | 0.00 | 0.00 | 0.00 | 88 | 1020.7 |
| 20260506110530 | 49 | 158 | 0.0 | 0.0 | 0.00 | 0.00 | 0.00 | 88 | 1020.4 |
| 20260506110027 | 49 | 158 | 0.0 | 0.0 | 0.00 | 0.00 | 0.00 | 88 | 1020.6 |
| 20260506105523 | 49 | 159 | 0.0 | 0.0 | 0.00 | 0.00 | 0.00 | 88 | 1020.6 |
| 20260506105021 | 49 | 159 | 0.0 | 0.0 | 0.00 | 0.00 | 0.00 | 88 | 1020.6 |
| 20260506104519 | 49 | 159 | 0.0 | 0.0 | 0.00 | 0.00 | 0.00 | 88 | 1020.7 |
| 20260506104016 | 49 | 159 | 0.0 | 0.0 | 0.00 | 0.00 | 0.00 | 88 | 1020.5 |
| 20260506103513 | 49 | 158 | 0.0 | 0.0 | 0.00 | 0.00 | 0.00 | 88 | 1020.6 |
| 20260506103010 | 49 | 165 | 0.0 | 1.0 | 0.00 | 0.00 | 0.00 | 88 | 1020.5 |
| 20260506102509 | 49 | 164 | 0.0 | 0.0 | 0.00 | 0.00 | 0.00 | 88 | 1020.6 |
| 20260506102005 | 50 | 164 | 0.0 | 0.0 | 0.00 | 0.00 | 0.00 | 87 | 1020.5 |
| 20260506101502 | 50 | 165 | 0.0 | 0.0 | 0.00 | 0.00 | 0.00 | 87 | 1020.5 |
| 20260506100959 | 50 | 165 | 0.0 | 0.0 | 0.00 | 0.00 | 0.00 | 87 | 1020.9 |
| 20260506100457 | 50 | 165 | 0.0 | 0.0 | 0.00 | 0.00 | 0.00 | 87 | 1020.6 |
| 20260506095955 | 50 | 165 | 0.0 | 0.0 | 0.00 | 0.00 | 0.00 | 87 | 1020.4 |
| 20260506095454 | 50 | 165 | 0.0 | 0.0 | 0.00 | 0.00 | 0.00 | 87 | 1020.4 |
| 20260506094949 | 50 | 165 | 0.0 | 0.0 | 0.00 | 0.00 | 0.00 | 87 | 1020.5 |
| 20260506094448 | 50 | 165 | 0.0 | 0.0 | 0.00 | 0.00 | 0.00 | 87 | 1020.5 |
| 20260506093945 | 50 | 165 | 0.0 | 0.0 | 0.00 | 0.00 | 0.00 | 87 | 1020.6 |
| 20260506093443 | 50 | 165 | 0.0 | 0.0 | 0.00 | 0.00 | 0.00 | 86 | 1020.4 |
| 20260506092940 | 50 | 165 | 0.0 | 0.0 | 0.00 | 0.00 | 0.00 | 86 | 1020.6 |
| 20260506092438 | 50 | 165 | 0.0 | 0.0 | 0.00 | 0.00 | 0.00 | 86 | 1020.7 |
| 20260506091934 | 50 | 165 | 0.0 | 0.0 | 0.00 | 0.00 | 0.00 | 86 | 1020.7 |
| 20260506091433 | 50 | 165 | 0.0 | 0.0 | 0.00 | 0.00 | 0.00 | 86 | 1020.6 |
| 20260506090930 | 51 | 164 | 0.0 | 0.0 | 0.00 | 0.00 | 0.00 | 85 | 1020.6 |
| 20260506090427 | 51 | 164 | 0.0 | 0.0 | 0.00 | 0.00 | 0.00 | 85 | 1020.9 |
| 20260506085924 | 51 | 164 | 0.0 | 0.0 | 0.00 | 0.00 | 0.00 | 85 | 1020.8 |
| 20260506085421 | 51 | 165 | 0.0 | 0.0 | 0.00 | 0.00 | 0.00 | 85 | 1020.9 |
| 20260506084917 | 51 | 168 | 0.0 | 0.0 | 0.00 | 0.00 | 0.00 | 84 | 1020.9 |
| 20260506084414 | 51 | 168 | 0.0 | 0.0 | 0.00 | 0.00 | 0.00 | 84 | 1020.8 |
| 20260506083910 | 51 | 173 | 0.0 | 0.0 | 0.00 | 0.00 | 0.00 | 84 | 1021.1 |
| 20260506083408 | 51 | 178 | 0.0 | 0.0 | 0.00 | 0.00 | 0.00 | 84 | 1021.3 |
| 20260506082905 | 51 | 177 | 0.0 | 0.0 | 0.00 | 0.00 | 0.00 | 84 | 1020.7 |
| 20260506082401 | 51 | 177 | 0.0 | 0.0 | 0.00 | 0.00 | 0.00 | 84 | 1020.9 |
| 20260506081857 | 52 | 177 | 0.0 | 0.0 | 0.00 | 0.00 | 0.00 | 84 | 1021.1 |
| 20260506081356 | 52 | 182 | 0.0 | 0.0 | 0.00 | 0.00 | 0.00 | 83 | 1021.2 |
| 20260506080853 | 52 | 174 | 0.0 | 0.0 | 0.00 | 0.00 | 0.00 | 82 | 1021.2 |
| 20260506080349 | 52 | 155 | 1.0 | 1.0 | 0.00 | 0.00 | 0.00 | 82 | 1020.7 |
| 20260506073333 | 53 | 306 | 0.0 | 0.0 | 0.00 | 0.00 | 0.00 | 76 | 1020.9 |
| 20260506072830 | 53 | 306 | 0.0 | 0.0 | 0.00 | 0.00 | 0.00 | 76 | 1021.2 |
| 20260506072328 | 53 | 306 | 0.0 | 0.0 | 0.00 | 0.00 | 0.00 | 76 | 1021.2 |
| 20260506071826 | 53 | 306 | 0.0 | 0.0 | 0.00 | 0.00 | 0.00 | 76 | 1021.5 |
| 20260506071324 | 53 | 306 | 0.0 | 0.0 | 0.00 | 0.00 | 0.00 | 76 | 1021.3 |
| 20260506070820 | 54 | 306 | 0.0 | 0.0 | 0.00 | 0.00 | 0.00 | 75 | 1021.2 |
| 20260506070317 | 54 | 306 | 0.0 | 0.0 | 0.00 | 0.00 | 0.00 | 75 | 1021.3 |